ARG1494 SAEZ-SASA

Flight info

Callsign ARG1494
Flight time 2h 2m
Altitude FL360
Route BIVA3A BIVAM UW8 ERE UT672 DADMI UT677 ILPAR ILPA2M
Aircraft B38M/M-SDE2E3FGHIRWXY/LB1

Departure

Time 2026-04-21 20:11
Airport Ezeiza International Airport - Ministro Pistarini (SAEZ)

Arrival

Time 2026-04-21 22:13
Airport Martín Miguel de Güemes International Airport (SASA)
Time Latitude Longitude Altitude Speed Heading
2026-04-21 19:38 -34.81620 -58.54448 77 ft 0 kts 11°
2026-04-21 20:02 -34.81627 -58.54449 72 ft 4 kts 11°
2026-04-21 20:02 -34.81654 -58.54456 75 ft 4 kts 12°
2026-04-21 20:03 -34.81680 -58.54463 68 ft 4 kts 12°
2026-04-21 20:03 -34.81707 -58.54468 69 ft 4 kts
2026-04-21 20:03 -34.81733 -58.54468 69 ft 4 kts 348°
2026-04-21 20:03 -34.81754 -58.54455 78 ft 4 kts 298°
2026-04-21 20:04 -34.81757 -58.54447 67 ft 2 kts 276°
2026-04-21 20:07 -34.81756 -58.54450 78 ft 1 kts 275°
2026-04-21 20:08 -34.81754 -58.54476 75 ft 5 kts 275°
2026-04-21 20:08 -34.81754 -58.54547 71 ft 12 kts 262°
2026-04-21 20:08 -34.81778 -58.54670 78 ft 18 kts 263°
2026-04-21 20:08 -34.81763 -58.54847 68 ft 24 kts 282°
2026-04-21 20:09 -34.81727 -58.55051 78 ft 25 kts 283°
2026-04-21 20:09 -34.81695 -58.55239 70 ft 16 kts 269°
2026-04-21 20:09 -34.81756 -58.55339 75 ft 15 kts 191°
2026-04-21 20:09 -34.81852 -58.55304 81 ft 15 kts 146°
2026-04-21 20:10 -34.81923 -58.55210 81 ft 16 kts 118°
2026-04-21 20:10 -34.81973 -58.54967 81 ft 61 kts 102°
2026-04-21 20:10 -34.82113 -58.54184 87 ft 127 kts 102°
2026-04-21 20:10 -34.82339 -58.52917 88 ft 177 kts 102°
2026-04-21 20:11 -34.82577 -58.51454 757 ft 170 kts 104°
2026-04-21 20:11 -34.83112 -58.50080 1132 ft 192 kts 130°
2026-04-21 20:11 -34.84046 -58.48946 1865 ft 192 kts 140°
2026-04-21 20:11 -34.85112 -58.47833 2324 ft 212 kts 142°
2026-04-21 20:12 -34.86180 -58.46456 2683 ft 240 kts 119°
2026-04-21 20:12 -34.86946 -58.44535 3172 ft 258 kts 115°
2026-04-21 20:12 -34.87770 -58.42562 3938 ft 269 kts 117°
2026-04-21 20:12 -34.88683 -58.40497 4602 ft 283 kts 120°
2026-04-21 20:13 -34.89744 -58.38485 5490 ft 286 kts 135°
2026-04-21 20:13 -34.91384 -58.37267 6278 ft 285 kts 168°
2026-04-21 20:13 -34.93322 -58.37264 7016 ft 279 kts 202°
2026-04-21 20:13 -34.94903 -58.38504 7830 ft 270 kts 235°
2026-04-21 20:14 -34.95722 -58.40509 8642 ft 266 kts 255°
2026-04-21 20:14 -34.96461 -58.42602 9470 ft 272 kts 245°
2026-04-21 20:14 -34.97361 -58.44632 10248 ft 276 kts 248°
2026-04-21 20:14 -34.98132 -58.46843 10613 ft 293 kts 255°
2026-04-21 20:15 -34.98675 -58.49305 10921 ft 308 kts 265°
2026-04-21 20:15 -34.98485 -58.51899 11431 ft 313 kts 289°
2026-04-21 20:15 -34.97484 -58.54264 12084 ft 317 kts 306°
2026-04-21 20:15 -34.95899 -58.56138 12846 ft 322 kts 324°
2026-04-21 20:16 -34.93834 -58.57235 13614 ft 331 kts 345°
2026-04-21 20:16 -34.91508 -58.57261 14311 ft 344 kts
2026-04-21 20:16 -34.89209 -58.56336 14988 ft 351 kts 13°
2026-04-21 20:16 -34.86886 -58.55388 15606 ft 356 kts 13°
2026-04-21 20:17 -34.84536 -58.54416 16252 ft 359 kts 13°
2026-04-21 20:17 -34.82129 -58.53708 16836 ft 354 kts 358°
2026-04-21 20:17 -34.79677 -58.53733 17410 ft 356 kts 354°
2026-04-21 20:17 -34.77194 -58.53798 18018 ft 359 kts 353°
2026-04-21 20:18 -34.75524 -58.53853 18393 ft 362 kts 353°
2026-04-21 20:18 -34.72160 -58.53979 19094 ft 366 kts 353°
2026-04-21 20:18 -34.69607 -58.54081 19625 ft 369 kts 353°
2026-04-21 20:18 -34.67033 -58.54186 20114 ft 372 kts 352°
2026-04-21 20:19 -34.64437 -58.54294 20586 ft 375 kts 352°
2026-04-21 20:19 -34.61824 -58.54403 21079 ft 379 kts 352°
2026-04-21 20:19 -34.59185 -58.54513 21563 ft 382 kts 352°
2026-04-21 20:19 -34.56523 -58.54625 22046 ft 385 kts 352°
2026-04-21 20:20 -34.53843 -58.54738 22518 ft 388 kts 352°
2026-04-21 20:20 -34.51135 -58.54851 22985 ft 391 kts 352°
2026-04-21 20:20 -34.48412 -58.54965 23476 ft 394 kts 352°
2026-04-21 20:20 -34.45669 -58.55080 23868 ft 397 kts 351°
2026-04-21 20:21 -34.42906 -58.55196 24252 ft 399 kts 351°
2026-04-21 20:21 -34.40124 -58.55313 24638 ft 402 kts 351°
2026-04-21 20:21 -34.37331 -58.55430 25031 ft 404 kts 351°
2026-04-21 20:21 -34.34581 -58.55545 25408 ft 406 kts 351°
2026-04-21 20:22 -34.31753 -58.55663 25774 ft 409 kts 351°
2026-04-21 20:22 -34.26050 -58.55901 26516 ft 413 kts 351°
2026-04-21 20:22 -34.23194 -58.56126 26857 ft 409 kts 343°
2026-04-21 20:23 -34.20527 -58.57120 27163 ft 398 kts 327°
2026-04-21 20:23 -34.18254 -58.58929 27425 ft 391 kts 313°
2026-04-21 20:23 -34.16488 -58.61389 27702 ft 388 kts 300°
2026-04-21 20:23 -34.15296 -58.64288 28007 ft 387 kts 288°
2026-04-21 20:24 -34.14616 -58.67429 28319 ft 389 kts 278°
2026-04-21 20:24 -34.14495 -58.70691 28670 ft 392 kts 271°
2026-04-21 20:24 -34.14607 -58.73980 29002 ft 394 kts 269°
2026-04-21 20:24 -34.14471 -58.77263 29303 ft 394 kts 283°
2026-04-21 20:25 -34.13485 -58.80337 29638 ft 398 kts 298°
2026-04-21 20:25 -34.11774 -58.82975 29983 ft 406 kts 311°
2026-04-21 20:25 -34.09546 -58.85101 30307 ft 412 kts 319°
2026-04-21 20:25 -34.07162 -58.87027 30592 ft 414 kts 320°
2026-04-21 20:26 -34.04732 -58.88900 30859 ft 417 kts 321°
2026-04-21 20:26 -34.02271 -58.90748 31145 ft 418 kts 321°
2026-04-21 20:26 -33.99802 -58.92577 31489 ft 417 kts 321°
2026-04-21 20:26 -33.97337 -58.94389 31865 ft 416 kts 321°
2026-04-21 20:27 -33.94874 -58.96195 32229 ft 414 kts 321°
2026-04-21 20:27 -33.92419 -58.97992 32587 ft 413 kts 321°
2026-04-21 20:27 -33.89972 -58.99781 32943 ft 412 kts 321°
2026-04-21 20:27 -33.87531 -59.01565 33279 ft 411 kts 321°
2026-04-21 20:28 -33.85091 -59.03345 33628 ft 410 kts 320°
2026-04-21 20:28 -33.82665 -59.05116 33972 ft 409 kts 320°
2026-04-21 20:28 -33.80239 -59.06884 34252 ft 408 kts 320°
2026-04-21 20:28 -33.77819 -59.08646 34530 ft 407 kts 320°
2026-04-21 20:29 -33.75406 -59.10404 34807 ft 406 kts 320°
2026-04-21 20:29 -33.72998 -59.12156 35077 ft 405 kts 320°
2026-04-21 20:29 -33.70597 -59.13901 35335 ft 404 kts 320°
2026-04-21 20:29 -33.68199 -59.15643 35588 ft 403 kts 320°
2026-04-21 20:30 -33.65808 -59.17380 35832 ft 402 kts 320°
2026-04-21 20:30 -33.63421 -59.19112 35999 ft 402 kts 320°
2026-04-21 20:30 -33.58654 -59.22567 36007 ft 399 kts 320°
2026-04-21 20:31 -33.53910 -59.26002 36005 ft 399 kts 320°
2026-04-21 20:31 -33.49164 -59.29434 36004 ft 399 kts 320°
2026-04-21 20:32 -33.44419 -59.32860 36005 ft 399 kts 320°
2026-04-21 20:32 -33.39675 -59.36281 36009 ft 399 kts 320°
2026-04-21 20:33 -33.34935 -59.39695 36005 ft 398 kts 320°
2026-04-21 20:33 -33.30195 -59.43105 36012 ft 398 kts 320°
2026-04-21 20:34 -33.25460 -59.46507 36012 ft 398 kts 320°
2026-04-21 20:34 -33.20717 -59.49911 36012 ft 398 kts 320°
2026-04-21 20:35 -33.15977 -59.53307 36011 ft 398 kts 320°
2026-04-21 20:35 -33.11238 -59.56698 36024 ft 398 kts 320°
2026-04-21 20:36 -33.06501 -59.60084 36019 ft 398 kts 320°
2026-04-21 20:36 -33.01762 -59.63467 36020 ft 398 kts 320°
2026-04-21 20:37 -32.97021 -59.66847 36020 ft 398 kts 320°
2026-04-21 20:37 -32.92281 -59.70222 36022 ft 398 kts 320°
2026-04-21 20:38 -32.87541 -59.73593 36029 ft 398 kts 320°
2026-04-21 20:38 -32.82801 -59.76959 36026 ft 398 kts 319°
2026-04-21 20:39 -32.78059 -59.80323 36027 ft 398 kts 319°
2026-04-21 20:39 -32.73319 -59.83681 36029 ft 398 kts 319°
2026-04-21 20:40 -32.68572 -59.87041 36030 ft 398 kts 319°
2026-04-21 20:40 -32.63830 -59.90393 36032 ft 397 kts 319°
2026-04-21 20:41 -32.59087 -59.93742 36026 ft 397 kts 319°
2026-04-21 20:41 -32.54346 -59.97088 36031 ft 397 kts 319°
2026-04-21 20:42 -32.49604 -60.00432 36037 ft 397 kts 319°
2026-04-21 20:42 -32.44857 -60.03775 36028 ft 397 kts 319°
2026-04-21 20:43 -32.40115 -60.07110 36033 ft 398 kts 319°
2026-04-21 20:43 -32.35373 -60.10441 36038 ft 398 kts 319°
2026-04-21 20:44 -32.30627 -60.13772 36033 ft 397 kts 319°
2026-04-21 20:44 -32.25881 -60.17097 36041 ft 397 kts 319°
2026-04-21 20:45 -32.21138 -60.20417 36041 ft 397 kts 319°
2026-04-21 20:45 -32.16396 -60.23731 36040 ft 397 kts 319°
2026-04-21 20:46 -32.11655 -60.27042 36042 ft 397 kts 319°
2026-04-21 20:46 -32.06914 -60.30348 36047 ft 396 kts 319°
2026-04-21 20:47 -32.02178 -60.33646 36042 ft 396 kts 319°
2026-04-21 20:47 -31.97441 -60.36942 36044 ft 396 kts 319°
2026-04-21 20:48 -31.92710 -60.40228 36044 ft 396 kts 319°
2026-04-21 20:48 -31.87976 -60.43514 36034 ft 395 kts 319°
2026-04-21 20:49 -31.83252 -60.46789 36045 ft 395 kts 319°
2026-04-21 20:49 -31.78648 -60.50210 36048 ft 391 kts 317°
2026-04-21 20:50 -31.74100 -60.53695 36047 ft 391 kts 317°
2026-04-21 20:50 -31.69546 -60.57163 36045 ft 391 kts 317°
2026-04-21 20:51 -31.64994 -60.60622 36048 ft 390 kts 317°
2026-04-21 20:51 -31.60445 -60.64075 36049 ft 390 kts 317°
2026-04-21 20:52 -31.55904 -60.67519 36046 ft 389 kts 317°
2026-04-21 20:52 -31.51361 -60.70959 36048 ft 389 kts 317°
2026-04-21 20:53 -31.46825 -60.74391 36046 ft 388 kts 317°
2026-04-21 20:53 -31.42296 -60.77813 36053 ft 388 kts 317°
2026-04-21 20:54 -31.37772 -60.81227 36053 ft 387 kts 317°
2026-04-21 20:54 -31.33253 -60.84633 36051 ft 387 kts 317°
2026-04-21 20:55 -31.28737 -60.88033 36058 ft 386 kts 317°
2026-04-21 20:55 -31.24228 -60.91425 36051 ft 386 kts 317°
2026-04-21 20:56 -31.19718 -60.94813 36060 ft 386 kts 317°
2026-04-21 20:56 -31.15211 -60.98194 36056 ft 386 kts 317°
2026-04-21 20:57 -31.10708 -61.01569 36057 ft 385 kts 317°
2026-04-21 20:57 -31.06208 -61.04939 36058 ft 385 kts 317°
2026-04-21 20:58 -31.01705 -61.08304 36062 ft 385 kts 317°
2026-04-21 20:58 -30.97204 -61.11664 36061 ft 385 kts 317°
2026-04-21 20:59 -30.92703 -61.15020 36063 ft 385 kts 317°
2026-04-21 20:59 -30.88203 -61.18372 36067 ft 385 kts 317°
2026-04-21 21:00 -30.83703 -61.21720 36065 ft 384 kts 317°
2026-04-21 21:00 -30.79203 -61.25063 36064 ft 384 kts 317°
2026-04-21 21:01 -30.74704 -61.28403 36059 ft 384 kts 317°
2026-04-21 21:01 -30.70203 -61.31740 36061 ft 385 kts 317°
2026-04-21 21:02 -30.65700 -61.35076 36066 ft 385 kts 317°
2026-04-21 21:02 -30.61193 -61.38409 36064 ft 385 kts 317°
2026-04-21 21:03 -30.56689 -61.41738 36069 ft 385 kts 317°
2026-04-21 21:03 -30.52183 -61.45064 36063 ft 385 kts 317°
2026-04-21 21:04 -30.47677 -61.48386 36070 ft 384 kts 317°
2026-04-21 21:04 -30.43175 -61.51702 36072 ft 384 kts 317°
2026-04-21 21:05 -30.38667 -61.55019 36067 ft 385 kts 317°
2026-04-21 21:05 -30.34159 -61.58332 36068 ft 385 kts 317°
2026-04-21 21:06 -30.29653 -61.61639 36072 ft 385 kts 317°
2026-04-21 21:06 -30.25137 -61.64950 36072 ft 385 kts 317°
2026-04-21 21:07 -30.20624 -61.68255 36074 ft 385 kts 318°
2026-04-21 21:07 -30.16109 -61.71559 36071 ft 385 kts 318°
2026-04-21 21:08 -30.11593 -61.74859 36074 ft 385 kts 318°
2026-04-21 21:08 -30.07077 -61.78157 36069 ft 385 kts 318°
2026-04-21 21:09 -30.02555 -61.81454 36075 ft 385 kts 318°
2026-04-21 21:09 -29.98035 -61.84746 36064 ft 385 kts 318°
2026-04-21 21:10 -29.93512 -61.88039 36072 ft 385 kts 318°
2026-04-21 21:10 -29.88985 -61.91330 36077 ft 385 kts 318°
2026-04-21 21:11 -29.84255 -61.94324 36081 ft 390 kts 322°
2026-04-21 21:11 -29.79467 -61.97253 36069 ft 390 kts 321°
2026-04-21 21:12 -29.74695 -62.00198 36072 ft 390 kts 321°
2026-04-21 21:12 -29.69919 -62.03146 36073 ft 391 kts 321°
2026-04-21 21:13 -29.65140 -62.06093 36072 ft 391 kts 322°
2026-04-21 21:13 -29.60360 -62.09038 36071 ft 391 kts 322°
2026-04-21 21:14 -29.55571 -62.11985 36073 ft 391 kts 322°
2026-04-21 21:14 -29.50780 -62.14930 36071 ft 391 kts 322°
2026-04-21 21:15 -29.45986 -62.17874 36070 ft 392 kts 322°
2026-04-21 21:15 -29.41189 -62.20816 36073 ft 392 kts 322°
2026-04-21 21:16 -29.36391 -62.23757 36074 ft 392 kts 322°
2026-04-21 21:16 -29.31587 -62.26697 36071 ft 392 kts 322°
2026-04-21 21:17 -29.26782 -62.29634 36072 ft 393 kts 322°
2026-04-21 21:17 -29.21969 -62.32574 36072 ft 393 kts 322°
2026-04-21 21:18 -29.17151 -62.35513 36070 ft 393 kts 322°
2026-04-21 21:18 -29.12334 -62.38449 36072 ft 393 kts 322°
2026-04-21 21:19 -29.07512 -62.41384 36070 ft 394 kts 322°
2026-04-21 21:19 -29.02687 -62.44319 36070 ft 393 kts 322°
2026-04-21 21:20 -28.97864 -62.47249 36071 ft 394 kts 322°
2026-04-21 21:20 -28.93036 -62.50178 36073 ft 394 kts 322°
2026-04-21 21:21 -28.88205 -62.53107 36069 ft 394 kts 322°
2026-04-21 21:21 -28.83392 -62.56054 36069 ft 390 kts 318°
2026-04-21 21:22 -28.79041 -62.59606 36075 ft 386 kts 316°
2026-04-21 21:22 -28.74705 -62.63195 36076 ft 386 kts 316°
2026-04-21 21:23 -28.70374 -62.66787 36074 ft 386 kts 316°
2026-04-21 21:23 -28.66038 -62.70381 36073 ft 386 kts 316°
2026-04-21 21:24 -28.61700 -62.73973 36074 ft 387 kts 316°
2026-04-21 21:24 -28.57358 -62.77564 36072 ft 387 kts 316°
2026-04-21 21:25 -28.53015 -62.81153 36075 ft 387 kts 316°
2026-04-21 21:25 -28.48671 -62.84739 36076 ft 387 kts 316°
2026-04-21 21:26 -28.44325 -62.88322 36075 ft 387 kts 316°
2026-04-21 21:26 -28.39973 -62.91906 36074 ft 387 kts 316°
2026-04-21 21:27 -28.35625 -62.95484 36072 ft 387 kts 316°
2026-04-21 21:27 -28.31270 -62.99064 36072 ft 387 kts 316°
2026-04-21 21:28 -28.26912 -63.02643 36074 ft 388 kts 316°
2026-04-21 21:29 -28.20372 -63.08006 36075 ft 388 kts 316°
2026-04-21 21:29 -28.16005 -63.11583 36071 ft 388 kts 316°
2026-04-21 21:30 -28.11641 -63.15153 36074 ft 388 kts 316°
2026-04-21 21:30 -28.07268 -63.18727 36070 ft 388 kts 316°
2026-04-21 21:31 -28.02895 -63.22298 36077 ft 389 kts 317°
2026-04-21 21:31 -27.98518 -63.25868 36077 ft 389 kts 317°
2026-04-21 21:32 -27.94134 -63.29440 36073 ft 389 kts 317°
2026-04-21 21:32 -27.89745 -63.33013 36073 ft 389 kts 317°
2026-04-21 21:33 -27.85356 -63.36582 36083 ft 390 kts 317°
2026-04-21 21:33 -27.80961 -63.40152 36074 ft 390 kts 317°
2026-04-21 21:34 -27.76560 -63.43724 36069 ft 390 kts 317°
2026-04-21 21:34 -27.72155 -63.47295 36072 ft 391 kts 317°
2026-04-21 21:35 -27.67748 -63.50864 36078 ft 391 kts 317°
2026-04-21 21:35 -27.63337 -63.54433 36076 ft 391 kts 317°
2026-04-21 21:36 -27.58925 -63.57999 36079 ft 391 kts 317°
2026-04-21 21:36 -27.54504 -63.61568 36074 ft 392 kts 317°
2026-04-21 21:37 -27.50080 -63.65137 36073 ft 392 kts 317°
2026-04-21 21:37 -27.45648 -63.68708 36076 ft 393 kts 317°
2026-04-21 21:38 -27.41208 -63.72282 36076 ft 393 kts 317°
2026-04-21 21:38 -27.36766 -63.75854 36072 ft 393 kts 317°
2026-04-21 21:39 -27.32320 -63.79426 36076 ft 394 kts 317°
2026-04-21 21:39 -27.27869 -63.82998 36081 ft 394 kts 317°
2026-04-21 21:40 -27.23417 -63.86567 36079 ft 394 kts 317°
2026-04-21 21:40 -27.18957 -63.90139 36077 ft 395 kts 318°
2026-04-21 21:41 -27.14492 -63.93712 36082 ft 395 kts 318°
2026-04-21 21:41 -27.10025 -63.97284 36080 ft 395 kts 318°
2026-04-21 21:42 -27.05557 -64.00852 36082 ft 395 kts 318°
2026-04-21 21:42 -27.01084 -64.04421 36081 ft 395 kts 318°
2026-04-21 21:43 -26.96620 -64.07991 36086 ft 395 kts 317°
2026-04-21 21:43 -26.92177 -64.11595 36085 ft 395 kts 317°
2026-04-21 21:44 -26.87733 -64.15192 36087 ft 395 kts 318°
2026-04-21 21:44 -26.83283 -64.18789 36090 ft 395 kts 318°
2026-04-21 21:45 -26.78834 -64.22383 36093 ft 395 kts 318°
2026-04-21 21:45 -26.74381 -64.25976 36091 ft 395 kts 318°
2026-04-21 21:46 -26.69948 -64.29549 35813 ft 388 kts 318°
2026-04-21 21:46 -26.67784 -64.31291 35543 ft 379 kts 318°
2026-04-21 21:46 -26.65668 -64.32995 35184 ft 373 kts 317°
2026-04-21 21:46 -26.63576 -64.34679 34720 ft 370 kts 317°
2026-04-21 21:47 -26.61489 -64.36358 34229 ft 373 kts 318°
2026-04-21 21:47 -26.59381 -64.38052 33673 ft 376 kts 318°
2026-04-21 21:47 -26.57259 -64.39757 33147 ft 376 kts 318°
2026-04-21 21:47 -26.55143 -64.41457 32665 ft 375 kts 318°
2026-04-21 21:48 -26.53032 -64.43152 32190 ft 373 kts 318°
2026-04-21 21:48 -26.50935 -64.44835 31715 ft 371 kts 318°
2026-04-21 21:48 -26.48847 -64.46510 31237 ft 369 kts 318°
2026-04-21 21:48 -26.46770 -64.48175 30769 ft 367 kts 318°
2026-04-21 21:49 -26.44704 -64.49831 30308 ft 365 kts 318°
2026-04-21 21:49 -26.42649 -64.51476 29777 ft 363 kts 318°
2026-04-21 21:49 -26.40609 -64.53110 29277 ft 361 kts 319°
2026-04-21 21:49 -26.38581 -64.54733 28820 ft 358 kts 319°
2026-04-21 21:50 -26.36573 -64.56339 28383 ft 355 kts 319°
2026-04-21 21:50 -26.34580 -64.57933 27948 ft 352 kts 319°
2026-04-21 21:50 -26.32603 -64.59513 27521 ft 349 kts 319°
2026-04-21 21:50 -26.30638 -64.61084 27087 ft 347 kts 319°
2026-04-21 21:51 -26.28681 -64.62646 26671 ft 346 kts 319°
2026-04-21 21:51 -26.26735 -64.64199 26257 ft 344 kts 319°
2026-04-21 21:51 -26.24795 -64.65748 25837 ft 343 kts 319°
2026-04-21 21:51 -26.22860 -64.67291 25429 ft 342 kts 319°
2026-04-21 21:52 -26.20929 -64.68831 25019 ft 342 kts 319°
2026-04-21 21:52 -26.19002 -64.70366 24609 ft 341 kts 319°
2026-04-21 21:52 -26.17078 -64.71899 24210 ft 341 kts 319°
2026-04-21 21:52 -26.15149 -64.73435 23819 ft 341 kts 320°
2026-04-21 21:53 -26.13221 -64.74969 23363 ft 342 kts 320°
2026-04-21 21:53 -26.11294 -64.76502 22934 ft 340 kts 320°
2026-04-21 21:53 -26.09380 -64.78025 22546 ft 338 kts 320°
2026-04-21 21:53 -26.07474 -64.79539 22172 ft 336 kts 320°
2026-04-21 21:54 -26.05584 -64.81042 21800 ft 333 kts 320°
2026-04-21 21:54 -26.03709 -64.82531 21440 ft 331 kts 320°
2026-04-21 21:54 -26.01826 -64.84026 21072 ft 336 kts 320°
2026-04-21 21:54 -25.99913 -64.85545 20703 ft 340 kts 320°
2026-04-21 21:55 -25.97987 -64.87073 20342 ft 342 kts 320°
2026-04-21 21:55 -25.96056 -64.88604 19984 ft 341 kts 320°
2026-04-21 21:55 -25.94129 -64.90132 19637 ft 341 kts 320°
2026-04-21 21:55 -25.92200 -64.91660 19271 ft 341 kts 320°
2026-04-21 21:56 -25.90276 -64.93184 18912 ft 340 kts 320°
2026-04-21 21:56 -25.88357 -64.94703 18561 ft 339 kts 320°
2026-04-21 21:56 -25.86446 -64.96216 18171 ft 337 kts 321°
2026-04-21 21:56 -25.84544 -64.97720 17796 ft 336 kts 321°
2026-04-21 21:57 -25.82656 -64.99213 17439 ft 333 kts 321°
2026-04-21 21:57 -25.80781 -65.00695 17092 ft 330 kts 321°
2026-04-21 21:57 -25.78919 -65.02166 16750 ft 328 kts 321°
2026-04-21 21:57 -25.77070 -65.03628 16416 ft 326 kts 321°
2026-04-21 21:58 -25.75232 -65.05079 16077 ft 324 kts 321°
2026-04-21 21:58 -25.73408 -65.06519 15741 ft 322 kts 322°
2026-04-21 21:58 -25.71593 -65.07951 15407 ft 320 kts 322°
2026-04-21 21:58 -25.69772 -65.09340 15139 ft 318 kts 327°
2026-04-21 21:59 -25.67852 -65.10570 14909 ft 322 kts 327°
2026-04-21 21:59 -25.65917 -65.11819 14710 ft 323 kts 327°
2026-04-21 21:59 -25.63985 -65.13076 14513 ft 322 kts 327°
2026-04-21 21:59 -25.62059 -65.14336 14322 ft 322 kts 327°
2026-04-21 22:00 -25.60139 -65.15594 14120 ft 321 kts 327°
2026-04-21 22:00 -25.58224 -65.16849 13915 ft 320 kts 327°
2026-04-21 22:00 -25.56312 -65.18102 13711 ft 319 kts 327°
2026-04-21 22:00 -25.54410 -65.19350 13503 ft 318 kts 327°
2026-04-21 22:01 -25.52514 -65.20592 13300 ft 317 kts 328°
2026-04-21 22:01 -25.50624 -65.21830 13102 ft 316 kts 328°
2026-04-21 22:01 -25.48743 -65.23063 12911 ft 314 kts 328°
2026-04-21 22:01 -25.46870 -65.24289 12728 ft 313 kts 328°
2026-04-21 22:02 -25.45005 -65.25510 12529 ft 311 kts 328°
2026-04-21 22:02 -25.43149 -65.26724 12341 ft 310 kts 328°
2026-04-21 22:02 -25.41302 -65.27932 12172 ft 308 kts 328°
2026-04-21 22:02 -25.39460 -65.29130 11987 ft 308 kts 329°
2026-04-21 22:03 -25.37625 -65.30321 11805 ft 306 kts 329°
2026-04-21 22:03 -25.35795 -65.31511 11643 ft 305 kts 329°
2026-04-21 22:03 -25.33980 -65.32690 11478 ft 304 kts 329°
2026-04-21 22:03 -25.32158 -65.33872 11313 ft 302 kts 329°
2026-04-21 22:04 -25.30357 -65.35042 11173 ft 298 kts 330°
2026-04-21 22:04 -25.28586 -65.36191 10866 ft 292 kts 330°
2026-04-21 22:04 -25.26870 -65.37305 10578 ft 281 kts 330°
2026-04-21 22:04 -25.25217 -65.38376 10311 ft 272 kts 330°
2026-04-21 22:05 -25.23589 -65.39432 10047 ft 272 kts 331°
2026-04-21 22:05 -25.21978 -65.40476 9751 ft 265 kts 331°
2026-04-21 22:05 -25.20417 -65.41488 9443 ft 256 kts 331°
2026-04-21 22:05 -25.18911 -65.42463 9138 ft 247 kts 331°
2026-04-21 22:06 -25.17438 -65.43417 8874 ft 246 kts 331°
2026-04-21 22:06 -25.15965 -65.44374 8649 ft 246 kts 331°
2026-04-21 22:06 -25.14500 -65.45329 8380 ft 243 kts 331°
2026-04-21 22:06 -25.13081 -65.46254 8182 ft 232 kts 331°
2026-04-21 22:07 -25.11726 -65.47139 7949 ft 222 kts 331°
2026-04-21 22:07 -25.10428 -65.47985 7728 ft 213 kts 331°
2026-04-21 22:07 -25.09175 -65.48801 7475 ft 210 kts 331°
2026-04-21 22:07 -25.07917 -65.49621 7253 ft 207 kts 331°
2026-04-21 22:08 -25.06714 -65.50404 7046 ft 196 kts 332°
2026-04-21 22:08 -25.05583 -65.51139 6879 ft 183 kts 332°
2026-04-21 22:08 -25.04502 -65.51841 6745 ft 177 kts 332°
2026-04-21 22:08 -25.03422 -65.52259 6677 ft 160 kts 354°
2026-04-21 22:09 -25.02299 -65.52274 6699 ft 164 kts
2026-04-21 22:09 -25.01170 -65.52060 6716 ft 166 kts 12°
2026-04-21 22:09 -25.00044 -65.51801 6631 ft 163 kts 12°
2026-04-21 22:09 -24.98946 -65.51559 6440 ft 160 kts 12°
2026-04-21 22:10 -24.97861 -65.51319 6226 ft 159 kts 13°
2026-04-21 22:10 -24.96771 -65.51078 6016 ft 161 kts 13°
2026-04-21 22:10 -24.95676 -65.50837 5803 ft 160 kts 13°
2026-04-21 22:10 -24.94590 -65.50599 5577 ft 160 kts 14°
2026-04-21 22:11 -24.93492 -65.50357 5370 ft 162 kts 15°
2026-04-21 22:11 -24.92400 -65.50117 5164 ft 159 kts 14°
2026-04-21 22:11 -24.91316 -65.49879 4963 ft 159 kts 14°
2026-04-21 22:11 -24.90240 -65.49642 4760 ft 158 kts 12°
2026-04-21 22:12 -24.89172 -65.49407 4558 ft 156 kts 13°
2026-04-21 22:12 -24.88119 -65.49176 4163 ft 153 kts 12°
2026-04-21 22:12 -24.87089 -65.48945 4036 ft 145 kts 11°
2026-04-21 22:12 -24.86214 -65.48757 4020 ft 101 kts 12°
2026-04-21 22:13 -24.85805 -65.48669 4020 ft 30 kts 11°
2026-04-21 22:13 -24.85627 -65.48632 4021 ft 21 kts 11°
2026-04-21 22:13 -24.85495 -65.48604 4021 ft 18 kts
2026-04-21 22:13 -24.85377 -65.48580 4020 ft 18 kts 11°
2026-04-21 22:14 -24.85270 -65.48556 4020 ft 16 kts 11°
2026-04-21 22:14 -24.85159 -65.48532 4020 ft 17 kts 11°
2026-04-21 22:14 -24.85052 -65.48509 4020 ft 16 kts 11°
2026-04-21 22:14 -24.84942 -65.48485 4020 ft 16 kts 11°
2026-04-21 22:15 -24.84846 -65.48465 4021 ft 14 kts 11°
2026-04-21 22:15 -24.84746 -65.48444 4020 ft 16 kts 12°
2026-04-21 22:15 -24.84663 -65.48380 4019 ft 12 kts 41°
2026-04-21 22:15 -24.84604 -65.48309 4019 ft 13 kts 62°
2026-04-21 22:16 -24.84574 -65.48212 4020 ft 14 kts 72°
2026-04-21 22:16 -24.84543 -65.48108 4019 ft 15 kts 72°
2026-04-21 22:16 -24.84515 -65.48014 4019 ft 12 kts 72°
2026-04-21 22:16 -24.84505 -65.47925 4019 ft 12 kts 111°
2026-04-21 22:17 -24.84525 -65.47871 4020 ft 7 kts 115°
2026-04-21 22:17 -24.84524 -65.47837 4019 ft 2 kts 39°
2026-04-21 22:17 -24.84510 -65.47831 4020 ft 3 kts 17°
2026-04-21 22:17 -24.84499 -65.47826 4019 ft 1 kts 22°